Milwaukee, WI

1:18 AM CDT on July 24, 2017 (GMT -0500)
Gen Mitchell International

Weather History for KMKE - October, 2010

Change the Weather History Date:

Friday, October 29, 2010

  Actual Average Record
Temperature  
Mean Temperature 41 °F 47 °F  
Max Temperature 51 °F 54 °F 81 °F (1937)
Min Temperature 31 °F 39 °F 18 °F (1925)
Degree Days  
Heating Degree Days 24 18  
Month to date heating degree days 276 396  
Since 1 July heating degree days 394 548  
Cooling Degree Days 0 0  
Month to date cooling degree days 3 3  
Year to date cooling degree days 944 637  
Moisture  
Dew Point 26 °F    
Average Humidity 56    
Maximum Humidity 78    
Minimum Humidity 33    
Precipitation  
Precipitation 0.00 in 0.09 in 1.40 in (1996)
Month to date precipitation 1.66 2.48  
Year to date precipitation 32.63 29.84  
Snow  
Snow 0.00 in 0.10 in 0.40 in (1917)
Month to date snowfall 0.0 0.3  
Since 1 July snowfall 0.0 0.3  
Since 1 September snowfall 0.0 0.3  
Snow Depth 0.00 in    
Sea Level Pressure  
Sea Level Pressure 30.24 in    
Wind  
Wind Speed 9 mph (WSW)    
Max Wind Speed 16 mph    
Max Gust Speed 23 mph    
Visibility 10 miles    
Events      
T = Trace of Precipitation, MM = Missing Value Source: NWS Daily Summary

Daily Weather History Graph

Daily Weather History Graph

Search for Another Location

Airport or City:

Trip Planner

Search our weather history database for the weather conditions in past years. The results will help you decide how hot, cold, wet, or windy it might be!

Date:

Astronomy

Oct. 29, 2010 Rise Set
Actual Time 7:22 AM CDT 5:47 PM CDT
Civil Twilight 6:52 AM CDT 6:17 PM CDT
Nautical Twilight 6:19 AM CDT 6:50 PM CDT
Astronomical Twilight 5:46 AM CDT 7:23 PM CDT
Moon 11:26 PM CDT (10/29) 1:25 PM CDT (10/29)
Length of Visible Light 11h 24m
Length of Day
10h 25m
Waning Gibbous, 59% of the Moon is Illuminated
Oct 29
Waning Gibbous
Oct 30
Last Quarter
Nov 5
New
Nov 13
First Quarter
Nov 21
Full

Hourly Weather History & Observations

Time (CDT) Temp. Windchill Dew Point Humidity Pressure Visibility Wind Dir Wind Speed Gust Speed Precip Events Conditions
12:52 AM 39.0 °F 31.0 °F 25.0 °F 57% 30.28 in 10.0 mi NW 13.8 mph 20.7 mph N/A   Mostly Cloudy
1:52 AM 37.9 °F 29.6 °F 25.0 °F 60% 30.29 in 10.0 mi NW 13.8 mph 19.6 mph N/A   Partly Cloudy
2:52 AM 37.0 °F 31.0 °F 26.1 °F 65% 30.30 in 10.0 mi WNW 8.1 mph - N/A   Clear
3:52 AM 36.0 °F 29.0 °F 26.1 °F 67% 30.32 in 10.0 mi WNW 9.2 mph - N/A   Clear
4:52 AM 35.1 °F 27.9 °F 26.1 °F 70% 30.32 in 10.0 mi WNW 9.2 mph - N/A   Clear
5:52 AM 33.1 °F 27.7 °F 26.1 °F 75% 30.33 in 10.0 mi WNW 5.8 mph - N/A   Clear
6:52 AM 33.1 °F 28.7 °F 26.1 °F 75% 30.34 in 10.0 mi West 4.6 mph - N/A   Partly Cloudy
7:52 AM 32.0 °F 27.5 °F 26.1 °F 79% 30.34 in 10.0 mi West 4.6 mph - N/A   Partly Cloudy
8:52 AM 34.0 °F 28.0 °F 27.0 °F 75% 30.35 in 10.0 mi West 6.9 mph - N/A   Partly Cloudy
9:52 AM 37.0 °F 32.4 °F 27.0 °F 67% 30.35 in 10.0 mi West 5.8 mph - N/A   Partly Cloudy
10:52 AM 39.9 °F 35.1 °F 25.0 °F 55% 30.34 in 10.0 mi West 6.9 mph - N/A   Scattered Clouds
11:52 AM 44.1 °F 41.5 °F 26.1 °F 49% 30.31 in 10.0 mi WSW 4.6 mph - N/A   Scattered Clouds
12:52 PM 46.0 °F 41.9 °F 24.1 °F 42% 30.28 in 10.0 mi West 8.1 mph - N/A   Scattered Clouds
1:52 PM 48.0 °F - 24.1 °F 39% 30.25 in 10.0 mi WSW 12.7 mph - N/A   Scattered Clouds
2:52 PM 50.0 °F - 25.0 °F 38% 30.22 in 10.0 mi SSW 11.5 mph - N/A   Mostly Cloudy
3:52 PM 50.0 °F - 24.1 °F 36% 30.20 in 10.0 mi SW 13.8 mph - N/A   Mostly Cloudy
4:52 PM 50.0 °F - 23.0 °F 35% 30.18 in 10.0 mi SW 11.5 mph - N/A   Mostly Cloudy
5:52 PM 48.0 °F - 27.0 °F 44% 30.16 in 10.0 mi SSW 10.4 mph - N/A   Mostly Cloudy
6:52 PM 45.0 °F 39.7 °F 28.0 °F 52% 30.15 in 10.0 mi SW 10.4 mph - N/A   Mostly Cloudy
7:52 PM 44.1 °F 39.0 °F 28.0 °F 53% 30.12 in 10.0 mi SSW 9.2 mph - N/A   Scattered Clouds
8:52 PM 43.0 °F 36.0 °F 28.0 °F 56% 30.09 in 10.0 mi SSW 13.8 mph - N/A   Partly Cloudy
9:52 PM 43.0 °F 37.2 °F 27.0 °F 53% 30.05 in 10.0 mi SSW 10.4 mph - N/A   Partly Cloudy
10:52 PM 45.0 °F 39.3 °F 26.1 °F 48% 30.04 in 10.0 mi SW 11.5 mph - N/A   Mostly Cloudy
11:52 PM 45.0 °F 39.3 °F 26.1 °F 48% 30.04 in 10.0 mi SW 11.5 mph - N/A   Mostly Cloudy